Wind_Speed
47 47 47 45 43 42 42 42 42 42 53 60 59 60 63 64 62 59 59 61 59 59 61 63 69 74 73 70 68 66 64 64 62 60 62 63 57 54 53 51 50 49 48 48 51 51 45 42 41 38 35 34 34 32 28 28 31 32 32 32 32 32 31 31 31 31 31 31 30 28 25 24 24 22 20 19 18 17 16 16 15 14 13 11 10 11
46 47 45 42 41 40 40 40 40 41 50 58 58 59 61 62 62 59 56 57 56 56 57 59 67 74 73 70 68 66 65 65 64 61 62 62 59 59 58 55 54 52 51 53 54 52 49 48 48 46 42 41 42 41 35 31 32 35 35 35 34 33 32 31 31 31 31 31 29 27 26 25 24 22 20 19 17 16 16 15 15 15 13 12 11 11
45 45 42 39 38 37 38 38 38 41 47 54 56 58 60 60 60 58 55 54 55 56 57 57 64 72 72 70 68 67 65 65 64 62 62 60 58 60 60 57 57 56 55 57 56 55 54 53 54 52 48 45 42 39 37 35 35 36 37 37 37 35 32 31 32 32 32 31 28 26 27 26 25 23 20 18 17 15 15 15 14 14 13 12 12 12
44 42 38 37 36 36 37 37 36 39 44 50 54 56 59 58 57 57 53 51 52 54 57 57 61 70 71 67 66 65 64 63 63 61 61 60 58 59 60 60 59 59 60 60 59 58 58 57 56 53 50 46 40 37 38 39 38 37 38 38 38 36 34 33 33 34 33 30 27 27 28 27 26 23 19 18 17 15 15 15 15 14 13 13 14 14
40 37 35 35 35 35 36 36 35 37 41 45 50 54 57 56 55 55 51 48 48 51 56 58 60 67 67 63 63 63 62 62 62 60 58 59 59 57 59 61 60 61 62 62 61 60 58 57 55 53 50 45 40 39 41 41 38 37 38 38 38 37 34 34 34 34 33 30 28 27 28 28 26 22 19 18 17 16 16 17 16 14 14 14 14 14
34 33 33 34 34 34 35 34 34 36 37 41 46 50 53 54 53 52 48 45 46 49 54 57 60 66 65 62 64 64 64 64 63 60 57 58 61 60 59 61 61 61 62 62 61 60 59 58 56 54 51 46 41 40 40 39 37 36 36 37 37 35 34 34 34 34 33 31 28 27 28 28 25 21 19 18 17 17 17 17 17 16 15 14 15 14
31 31 32 32 33 34 34 32 32 34 35 38 41 45 49 51 52 51 47 46 46 48 51 55 59 64 64 62 64 63 63 66 64 60 58 58 61 62 61 62 63 63 62 62 62 61 61 58 54 53 49 44 41 38 36 35 34 34 34 35 34 32 32 33 33 33 33 31 28 27 28 27 23 21 19 18 17 18 18 18 17 16 15 16 16 15
28 28 29 30 31 33 32 31 32 33 34 36 35 38 45 49 50 49 47 47 46 46 50 55 57 62 64 62 61 60 61 65 64 61 60 60 60 61 61 62 62 63 63 63 63 62 61 56 53 51 47 42 38 35 34 32 30 30 30 31 30 29 30 31 30 31 31 30 28 28 27 25 22 20 19 18 18 19 19 18 17 16 15 16 16 16
25 25 26 29 31 32 31 30 30 30 30 32 31 31 39 46 48 48 47 47 45 44 51 56 57 60 64 62 58 55 55 60 64 62 62 62 60 60 61 62 63 63 63 63 63 62 59 55 52 49 44 41 38 35 33 29 26 26 26 27 28 27 29 29 29 30 30 28 28 27 26 23 21 21 19 19 19 20 19 18 17 15 15 16 17 16
20 22 24 27 29 30 30 30 30 29 24 24 26 27 33 42 47 47 47 47 47 49 52 56 58 59 63 63 59 53 51 56 63 64 65 64 61 61 61 63 64 65 65 64 63 61 58 54 51 47 44 42 39 35 33 29 25 24 24 25 26 27 28 29 29 30 29 28 27 26 24 23 21 21 20 19 19 19 18 17 16 16 16 17 16 16
18 20 22 24 25 27 29 30 31 31 25 21 21 23 28 36 43 45 47 47 51 57 54 53 59 60 61 64 61 55 52 55 63 65 65 65 62 61 61 62 63 64 64 62 61 59 55 52 49 46 45 42 38 35 33 29 25 23 23 23 25 27 27 28 29 29 28 27 26 24 23 21 21 20 19 18 18 18 17 17 16 16 16 16 16 15
18 19 20 21 22 24 28 30 32 33 29 24 21 21 26 32 37 41 45 45 51 61 55 50 58 61 62 64 62 59 55 53 59 62 62 62 61 60 60 60 62 61 60 59 58 55 52 50 48 46 44 40 36 34 31 28 26 25 23 23 25 26 26 27 27 27 26 25 24 22 21 20 20 20 19 18 17 17 17 16 15 15 15 16 16 16
19 18 19 20 21 23 27 29 32 34 31 26 23 22 26 33 37 38 41 43 49 59 55 50 55 59 62 64 61 60 59 55 56 59 58 58 58 58 59 59 60 60 58 57 56 54 51 49 46 43 41 36 33 31 30 28 28 27 25 24 25 25 26 26 26 25 24 22 22 21 20 20 20 19 18 18 16 16 16 15 15 15 15 16 16 16
20 18 18 19 20 24 27 27 30 34 32 28 24 23 26 34 39 39 40 40 45 53 53 50 53 55 58 62 60 59 60 59 58 56 53 55 55 55 57 58 58 58 57 56 54 52 50 48 45 41 38 34 31 30 29 28 29 29 26 25 25 25 25 25 24 23 21 21 21 20 20 20 20 20 18 17 16 16 16 15 15 15 15 16 16 15
17 17 16 17 19 23 26 26 28 33 34 31 27 24 26 34 40 41 39 38 40 47 51 52 51 52 55 58 57 58 59 60 59 55 52 52 51 49 51 52 54 56 57 55 54 52 49 47 43 39 37 34 31 30 28 28 29 28 27 26 26 26 26 25 24 21 20 20 21 20 20 21 20 19 18 17 17 16 15 14 14 14 14 15 15 14
14 14 14 17 18 22 26 26 29 35 36 33 30 26 27 34 39 41 40 36 35 42 52 55 51 50 53 53 50 52 53 55 57 56 53 48 43 42 45 51 55 56 56 55 54 51 49 45 42 40 38 34 31 30 29 28 28 27 27 28 28 28 27 25 23 20 19 20 21 21 21 21 20 19 18 18 17 16 14 14 14 14 14 15 15 15
13 10 12 16 17 21 26 27 32 39 38 34 34 30 28 32 38 41 39 36 33 37 51 58 50 47 50 47 45 47 46 48 53 55 52 45 42 44 48 53 55 54 54 53 51 49 46 44 43 40 37 34 32 30 29 27 26 26 28 30 30 29 26 25 23 20 20 21 22 21 21 21 20 19 19 18 17 15 14 14 14 14 15 15 14 15
12 9 11 14 14 18 25 27 31 38 38 34 35 34 31 32 38 41 40 37 34 34 46 55 50 45 46 42 41 44 42 42 46 50 49 45 45 50 53 53 52 51 51 49 47 46 43 43 42 39 36 33 31 29 28 26 26 28 30 32 31 28 25 24 24 21 20 22 22 22 22 21 20 19 19 18 16 15 14 14 14 15 15 14 14 15
10 10 13 14 12 16 23 26 28 34 37 33 32 36 36 33 37 42 41 38 36 34 41 53 52 46 43 41 43 43 39 37 38 41 44 44 47 52 53 51 49 49 49 47 45 42 41 42 42 39 36 33 31 30 28 28 29 30 32 32 31 28 25 25 24 22 21 22 23 22 22 21 19 19 19 18 16 15 14 14 14 15 15 13 13 14
6 8 13 15 15 16 20 26 27 30 35 33 31 36 39 35 35 42 42 37 36 36 39 49 55 48 42 42 43 41 38 35 33 34 36 37 41 47 49 49 48 49 49 46 43 39 38 40 40 38 36 34 32 30 29 30 30 31 32 32 30 27 25 25 24 21 21 22 23 23 22 21 20 19 19 18 16 15 15 14 15 15 14 13 13 14
6 6 8 10 14 17 20 24 25 27 33 35 33 36 39 37 35 39 41 34 33 37 38 44 54 52 43 43 41 39 40 39 37 36 34 34 36 39 43 44 44 46 46 42 39 35 35 37 38 37 37 35 34 32 32 32 31 31 32 31 29 26 25 25 23 21 21 23 23 23 22 21 20 19 19 17 16 16 15 15 15 15 14 13 13 13
12 9 7 7 8 12 18 22 24 27 31 34 33 34 37 39 37 38 38 33 31 35 36 42 53 53 46 43 42 41 44 45 42 42 41 39 38 37 39 40 40 42 41 38 35 32 31 33 35 37 38 37 35 35 35 34 32 32 31 31 30 27 26 25 23 21 22 24 24 23 23 21 20 19 18 17 17 16 16 15 15 15 14 14 14 14
17 12 7 6 5 7 14 20 25 27 30 33 33 34 36 39 40 37 33 29 30 33 33 40 53 55 47 44 44 42 44 46 44 44 45 45 43 41 39 39 39 39 37 34 32 30 30 31 33 35 36 35 35 36 36 35 33 31 30 31 32 29 27 26 23 22 23 24 25 24 23 21 20 19 18 18 17 17 16 16 15 15 15 15 15 15
17 13 9 6 3 5 11 17 24 28 29 33 35 35 37 39 39 35 29 24 27 31 31 38 52 55 46 43 45 43 43 45 44 43 46 49 47 41 39 39 38 38 36 32 29 29 29 30 32 34 35 35 36 37 37 35 33 31 30 32 32 30 28 27 24 22 23 24 25 25 23 21 20 19 19 18 17 17 16 16 15 15 15 15 15 16
15 12 9 8 6 2 9 16 23 28 30 31 34 35 36 38 37 34 30 26 27 31 32 39 51 55 47 45 47 45 43 42 39 39 45 49 45 38 36 38 38 38 34 29 27 27 28 30 33 35 36 37 38 37 36 34 32 30 31 32 32 31 30 27 24 23 23 25 26 25 23 21 20 19 19 18 17 17 17 16 15 15 16 16 16 16
13 12 10 9 8 4 8 15 21 26 28 29 32 33 36 37 36 34 33 29 28 32 34 39 50 53 49 48 49 47 43 39 37 40 46 48 44 38 37 39 38 36 31 27 25 26 27 29 33 35 37 38 39 37 36 34 32 31 31 31 32 32 30 27 24 22 24 26 26 25 23 21 20 19 18 18 17 17 18 16 15 16 17 17 17 17
13 11 10 9 7 6 10 15 23 28 29 30 32 33 36 38 36 37 35 27 26 32 35 40 48 50 49 48 48 47 43 39 39 44 48 48 44 40 39 38 36 31 27 25 24 25 26 29 33 35 37 38 38 37 35 33 32 32 31 31 32 31 29 27 24 23 25 26 26 25 23 21 20 19 18 18 17 18 18 17 17 17 17 17 18 18
13 10 10 10 9 9 13 19 25 27 28 30 31 32 37 38 38 39 32 23 27 34 38 43 46 48 50 47 44 45 43 38 38 43 49 50 45 40 38 37 33 29 26 25 26 26 27 29 30 32 35 36 37 36 35 34 34 33 32 32 32 30 28 26 24 24 25 26 26 25 23 21 20 19 18 17 17 18 19 18 18 18 17 17 18 19
11 10 9 9 9 9 15 18 19 21 22 24 25 29 34 37 40 39 29 21 27 35 39 42 43 47 51 47 44 45 41 35 36 41 47 48 44 40 38 36 32 29 28 28 29 29 30 28 27 28 31 34 35 36 35 35 34 32 31 32 32 31 29 26 24 25 26 27 26 25 22 21 20 18 17 17 17 18 19 20 19 19 17 18 19 20
11 10 7 6 7 6 11 13 13 16 18 20 22 27 34 38 41 38 27 21 26 32 36 39 40 43 44 42 44 45 40 38 41 43 45 44 40 39 38 36 32 29 28 28 29 30 31 29 27 27 30 32 34 35 35 35 33 31 30 32 32 30 28 25 25 26 27 27 26 24 22 21 19 18 17 17 18 19 20 20 20 19 18 18 20 20
14 10 4 4 5 2 3 4 7 12 13 16 21 29 36 39 38 33 26 22 24 27 31 35 38 40 40 41 46 45 41 42 43 44 44 41 37 36 35 35 35 32 29 28 28 30 31 31 30 30 31 32 33 34 35 34 33 31 31 32 32 29 26 25 25 26 27 28 26 24 22 21 20 19 18 18 18 19 20 20 19 19 18 19 20 20
17 10 2 2 5 4 2 2 2 8 11 16 22 30 36 36 31 28 25 21 18 19 24 28 31 37 43 47 48 45 43 43 43 44 44 42 39 37 35 36 36 34 32 31 31 30 31 33 34 34 34 33 34 34 35 35 33 32 32 32 31 30 27 26 26 27 28 28 27 24 22 21 20 20 19 19 20 20 20 19 19 19 19 19 20 20
16 10 2 2 3 6 3 2 2 4 9 14 21 29 35 35 30 27 24 19 13 15 21 21 22 30 41 47 50 49 48 47 46 44 42 41 39 37 37 38 37 35 34 33 33 32 32 33 34 34 33 34 35 35 34 33 33 32 32 31 31 30 28 27 28 29 29 29 27 24 22 21 21 21 20 20 20 21 20 19 19 19 20 19 20 20
15 12 6 4 3 4 1 3 2 5 9 13 21 28 34 35 33 29 25 19 14 18 22 20 17 24 34 40 48 54 53 51 50 46 42 43 42 40 41 41 40 39 38 35 33 34 34 33 32 32 32 34 35 35 34 33 33 33 32 32 31 31 30 30 30 30 30 29 26 24 22 22 22 21 21 21 21 21 20 19 19 20 20 20 20 21
15 14 8 4 6 4 3 4 1 9 13 17 23 28 32 36 35 32 26 20 19 24 25 20 14 17 27 36 44 53 55 52 51 49 44 44 44 41 40 41 40 41 40 38 37 36 34 34 33 32 32 32 34 34 34 34 35 34 34 32 32 32 32 32 32 32 30 28 26 24 23 22 22 22 22 22 22 21 19 19 20 20 21 21 21 21
14 15 12 5 1 2 4 5 1 6 12 18 23 27 30 33 32 29 25 22 24 26 22 17 13 11 16 26 34 44 50 48 46 46 44 44 45 40 34 36 40 39 37 37 38 36 34 34 33 32 31 31 32 33 34 35 35 35 34 33 33 33 34 34 34 32 30 28 26 24 23 23 23 23 22 22 21 20 18 19 20 21 21 22 22 23
15 17 15 10 6 3 1 5 4 5 10 15 20 24 26 29 29 27 23 19 20 20 15 12 11 7 9 13 20 32 43 44 42 43 40 39 46 45 33 31 37 38 35 36 37 36 36 34 32 32 32 32 33 34 36 37 37 36 35 34 34 34 34 35 34 31 29 27 26 25 24 24 23 23 23 22 21 19 19 19 20 20 21 22 24 25
15 15 14 11 10 10 5 4 8 9 9 11 16 20 21 26 30 31 27 21 17 15 12 10 8 4 5 8 14 24 35 41 43 43 38 35 43 48 41 33 34 35 36 39 40 38 36 34 33 34 34 34 34 36 37 38 37 37 36 35 34 34 35 36 33 30 29 27 26 25 25 25 24 24 23 22 21 21 20 20 20 21 22 24 25 27
14 12 11 10 12 14 8 5 11 12 11 11 15 17 17 20 27 30 30 28 24 19 15 12 9 3 2 7 14 20 27 35 38 37 34 32 36 41 39 35 32 30 31 35 35 33 32 31 31 33 34 35 36 37 37 38 38 37 36 35 34 35 37 35 32 29 28 27 26 26 26 26 25 24 23 21 21 22 23 22 21 21 23 25 27 28
13 11 10 8 9 11 6 4 8 11 13 13 14 16 15 16 21 25 27 28 28 25 20 16 13 8 3 5 12 17 25 32 34 30 27 27 31 35 35 34 31 28 27 30 31 31 30 30 30 30 30 32 34 36 38 39 39 38 36 34 35 37 37 34 31 30 29 28 28 28 27 26 24 23 23 22 21 21 23 24 23 22 24 26 28 28
12 10 9 8 9 11 8 1 3 8 14 16 16 17 17 15 17 21 22 23 24 23 21 18 15 12 8 3 5 12 23 32 34 32 28 26 28 30 30 28 27 27 28 29 30 30 29 28 29 28 28 28 31 36 39 39 39 38 36 35 36 37 35 32 31 32 31 30 30 29 27 26 24 24 24 22 20 20 21 22 24 25 26 27 28 29
11 9 8 9 11 13 10 4 2 6 11 15 17 19 19 17 19 21 20 21 22 22 21 20 17 16 14 9 2 5 14 24 30 31 28 25 23 22 22 22 22 23 25 25 27 28 28 27 28 29 30 30 31 34 37 38 38 37 36 36 36 35 34 32 32 33 33 32 30 29 28 27 26 25 23 21 20 21 21 22 25 26 27 28 29 30
11 9 9 10 11 11 10 5 1 4 7 9 15 20 21 21 22 22 20 21 22 23 23 22 20 18 18 17 10 3 7 13 19 22 23 23 22 20 20 22 22 22 22 22 23 26 27 28 29 31 32 32 33 34 36 37 37 37 37 37 36 35 34 34 34 35 34 32 30 29 28 28 27 24 22 21 22 23 24 25 26 27 28 30 30 30
10 9 10 12 11 11 11 8 5 3 4 5 9 16 21 23 23 22 20 21 23 24 24 24 23 21 20 20 19 13 7 9 13 15 16 18 21 21 21 21 21 21 22 22 23 26 28 30 32 34 35 36 35 36 37 37 38 39 39 38 37 36 35 36 36 35 33 31 30 30 30 30 27 24 22 23 24 25 26 27 28 28 29 30 30 29
9 10 11 12 11 13 12 10 9 7 5 4 6 11 17 21 22 21 20 22 24 24 24 25 25 24 24 22 22 22 18 14 13 14 14 14 18 22 24 24 24 24 24 24 25 28 30 33 35 37 39 40 39 38 39 40 40 41 41 40 39 38 37 37 37 35 32 30 29 29 30 30 26 24 23 25 26 26 27 28 28 28 29 29 29 28
8 10 10 9 10 11 10 8 11 10 6 5 5 9 15 18 20 20 19 21 23 24 24 25 26 27 28 28 27 25 24 22 20 18 18 17 18 20 23 26 28 29 29 27 28 31 33 35 37 40 42 42 41 41 41 42 44 44 43 42 41 40 39 38 37 34 31 30 29 29 29 28 25 24 24 25 26 26 26 27 27 27 28 28 28 28
8 9 9 9 11 11 8 7 10 10 6 6 5 5 11 15 17 19 19 19 20 23 24 24 26 29 31 31 31 28 26 26 25 25 25 24 23 22 24 26 28 29 29 26 25 30 36 37 38 41 44 44 44 45 46 48 49 47 45 43 43 42 40 37 35 32 29 29 28 29 28 27 25 24 25 25 25 25 25 26 27 28 28 29 30 30
9 9 9 10 11 11 9 8 8 9 8 6 4 3 6 11 14 16 19 19 18 20 23 22 23 29 34 34 32 30 28 27 28 28 28 29 29 28 27 27 26 25 27 26 24 25 34 40 42 43 45 46 46 47 49 49 48 46 45 43 42 40 37 35 33 31 29 28 27 27 27 26 25 24 24 24 24 25 25 26 28 29 30 31 32 33
12 11 10 10 10 11 11 10 8 8 8 5 3 2 4 9 12 14 16 17 17 18 21 21 21 25 30 31 30 30 30 30 31 32 32 33 33 31 29 29 27 25 27 28 27 26 30 37 42 42 42 44 46 46 47 46 44 42 41 40 38 36 34 32 31 30 29 27 26 25 25 24 24 24 24 24 24 26 27 29 30 31 32 34 35 36
14 13 12 10 9 11 12 11 9 8 7 5 2 2 2 5 9 11 13 15 16 16 18 20 21 21 24 27 28 30 32 32 32 35 36 35 32 29 28 28 29 28 28 28 30 31 30 33 39 41 40 42 45 45 44 44 42 39 36 35 33 32 31 30 29 28 27 25 25 24 23 23 24 24 24 25 27 29 30 32 33 33 34 35 36 36
17 16 14 11 11 12 12 11 10 9 7 5 3 2 3 4 6 9 11 12 15 17 19 19 16 12 15 21 26 30 32 33 32 33 33 31 28 26 27 28 28 30 30 30 32 34 33 33 37 40 40 42 43 41 40 40 38 33 31 30 29 28 28 27 27 26 25 24 24 24 23 24 24 25 27 28 30 31 32 33 33 33 34 34 35 36
Wind_Direction
272 270 270 274 275 277 275 274 278 262 239 232 229 230 232 230 228 228 230 228 225 227 229 228 230 231 232 231 229 229 228 226 223 217 215 217 218 221 225 227 228 229 231 236 239 241 243 241 236 234 234 239 246 251 261 271 270 269 269 268 271 274 276 279 280 281 285 286 287 291 294 296 296 294 292 287 287 291 294 298 299 296 292 287 286 285
273 272 271 275 274 273 271 270 273 260 238 230 227 226 228 230 228 225 225 225 223 224 226 227 229 228 229 231 230 230 230 227 223 217 215 216 218 224 229 231 231 230 232 235 237 237 238 242 244 242 239 242 249 251 258 272 273 269 269 270 271 274 277 278 278 279 283 285 287 291 293 294 293 291 288 285 285 289 294 298 301 298 291 285 282 281
275 275 275 274 272 268 266 267 269 258 240 230 226 224 225 227 228 225 222 222 221 220 220 222 227 227 227 228 229 229 230 230 227 219 216 218 219 223 226 229 230 231 233 235 237 238 239 243 248 250 250 249 251 251 256 270 275 270 270 270 271 273 274 275 274 276 282 285 287 289 291 291 290 287 285 282 282 285 291 298 302 298 291 285 283 282
276 277 275 269 266 263 260 262 261 252 240 232 228 225 223 222 226 226 221 219 220 219 217 217 223 226 225 225 226 227 226 227 229 224 219 218 219 223 226 227 229 231 234 236 237 239 243 246 249 252 254 253 253 253 258 269 274 270 268 268 269 271 271 271 272 274 279 285 286 286 289 288 286 284 281 279 278 283 290 297 301 296 289 286 287 286
274 274 271 266 263 259 256 256 251 244 240 234 229 227 224 220 222 224 220 217 219 219 216 215 219 224 224 223 223 224 223 223 226 228 223 217 215 220 225 226 229 231 234 236 237 239 242 245 248 251 254 255 257 258 261 269 272 266 264 266 267 268 269 269 271 273 277 281 283 284 286 285 283 281 277 275 278 284 290 295 298 294 288 287 289 290
273 271 267 264 260 255 253 251 243 239 239 234 230 228 225 221 220 222 218 215 217 217 215 213 217 221 221 220 221 221 222 222 223 224 223 216 212 215 221 225 228 231 235 238 239 240 242 245 248 251 254 256 259 260 263 268 266 261 261 262 264 266 267 267 269 272 274 276 280 281 282 281 279 277 273 274 279 285 289 292 294 293 287 285 286 288
274 271 266 261 256 253 251 247 238 234 233 231 228 227 226 222 221 220 215 212 213 214 212 210 214 219 218 217 219 219 220 222 221 220 219 216 213 215 221 226 229 231 235 238 240 242 243 245 247 251 254 256 258 260 262 262 260 259 260 260 262 263 263 265 268 269 271 273 276 278 278 277 275 272 272 276 281 284 286 288 289 289 286 283 283 284
280 272 265 258 252 249 247 243 236 230 229 226 221 224 225 222 222 220 215 211 210 210 210 207 209 216 215 212 215 217 220 222 220 216 215 217 217 218 222 228 231 232 234 237 240 242 244 246 248 251 254 256 257 258 256 256 258 260 259 259 260 260 261 264 265 265 269 272 273 274 275 273 269 269 272 277 280 281 283 284 285 285 284 283 283 283
279 268 261 252 244 243 242 240 230 222 226 224 216 219 222 221 221 220 217 213 207 208 209 203 204 213 214 209 209 213 217 221 221 216 215 218 220 220 221 225 229 232 234 237 239 242 245 247 249 251 254 256 255 252 250 251 256 258 258 259 260 259 259 261 261 263 268 271 271 272 271 266 263 266 271 274 277 279 281 282 281 280 280 280 280 282
274 265 261 251 245 246 244 240 226 213 214 215 210 214 217 218 219 219 219 212 204 208 210 201 201 212 215 208 204 205 209 217 220 219 217 220 221 222 222 224 226 229 232 235 238 241 243 245 247 250 252 252 250 246 245 246 250 253 256 259 260 259 258 258 259 263 268 270 269 268 266 261 260 265 270 273 275 277 278 278 277 276 276 275 276 279
265 258 257 253 252 253 246 237 224 210 204 202 202 207 210 214 217 219 220 212 206 212 211 200 200 210 214 208 201 200 204 213 220 221 220 220 220 221 224 226 227 228 229 232 236 238 240 243 246 248 248 247 244 241 241 244 246 248 251 257 260 259 258 258 259 263 266 267 266 264 261 257 257 263 269 272 274 274 275 274 274 274 273 273 274 275
261 250 247 249 253 250 241 233 222 210 203 200 196 198 202 207 212 216 217 214 211 213 207 197 199 208 214 209 200 198 201 208 217 220 221 221 220 220 223 226 229 230 230 232 235 237 239 242 243 243 244 244 241 239 240 243 244 245 251 258 261 260 260 259 260 262 263 263 262 260 255 252 255 261 267 270 271 271 271 271 272 272 272 274 275 277
266 253 243 246 250 243 235 230 221 209 205 203 197 197 201 202 203 207 212 214 214 211 202 193 196 206 214 211 203 201 203 206 214 219 222 223 222 221 222 225 229 231 232 232 235 237 239 240 241 241 244 243 240 239 242 243 243 244 251 258 260 260 259 258 259 259 260 260 259 254 249 248 254 260 265 268 268 267 267 267 268 271 274 276 278 280
270 257 242 241 244 236 230 228 219 208 203 203 198 199 205 202 201 203 206 211 216 211 199 189 195 205 212 213 207 204 208 210 212 216 220 223 224 223 223 225 227 231 233 234 235 236 237 239 241 243 245 244 241 241 244 243 242 243 248 254 256 257 258 258 258 259 259 258 254 247 244 247 253 258 262 264 264 261 262 264 267 271 274 276 278 281
271 260 247 244 242 230 224 223 216 207 204 202 197 201 208 204 202 202 202 208 215 212 198 193 205 209 206 210 209 206 211 215 215 213 213 218 223 224 227 228 228 229 232 234 235 236 237 238 241 243 244 244 242 243 243 241 241 242 246 249 250 253 256 257 258 258 258 254 248 242 242 247 252 256 260 261 259 257 258 263 266 270 272 274 276 279
272 264 252 247 240 225 217 215 211 209 210 203 194 203 213 207 204 202 201 204 211 213 201 198 215 217 203 206 208 206 213 217 217 215 211 213 216 219 226 227 226 226 228 232 234 235 236 237 239 240 240 240 240 241 240 239 240 242 243 244 246 248 252 254 255 256 253 247 242 239 241 247 251 254 257 257 254 254 257 261 265 267 270 273 277 280
275 270 252 245 240 224 214 212 210 210 210 201 193 204 215 208 204 200 198 201 207 214 204 200 217 219 201 199 200 200 208 211 213 215 212 209 209 213 221 224 222 224 228 231 233 234 236 236 236 235 235 236 237 238 238 239 239 238 237 239 242 245 249 252 253 251 247 243 239 238 242 246 250 253 254 253 251 252 254 257 261 266 270 275 281 284
266 260 249 247 242 225 213 211 212 208 208 202 192 201 211 206 201 197 195 200 205 211 205 202 215 215 196 189 189 191 199 203 208 213 207 205 210 216 222 222 220 224 228 230 232 233 234 234 233 232 231 232 233 234 236 237 236 232 232 235 239 243 246 247 248 245 242 239 237 238 242 246 249 251 251 249 249 250 251 255 259 264 271 279 285 286
264 247 240 237 227 219 213 211 210 206 207 207 195 198 206 202 198 195 196 201 203 207 204 203 211 209 191 181 180 182 188 194 202 206 201 202 212 219 222 222 220 223 226 227 227 229 230 230 229 228 228 228 227 230 233 234 232 231 231 233 237 240 241 242 244 242 239 237 237 238 242 246 248 249 247 246 247 249 251 254 258 264 272 282 287 286
267 239 236 234 222 215 212 210 208 204 206 207 201 201 204 200 196 196 197 200 203 205 205 204 208 204 184 174 177 178 181 186 193 198 201 206 214 220 222 222 221 222 223 222 223 225 227 226 226 226 226 226 225 227 231 232 233 232 232 233 234 236 238 241 242 240 238 237 236 238 241 245 247 246 245 245 246 250 252 253 258 265 273 281 285 285
287 256 249 246 231 222 216 210 205 202 204 206 205 205 204 200 196 195 196 199 202 206 206 205 206 199 180 169 173 178 184 190 190 190 198 210 215 218 220 221 221 222 222 220 220 223 224 221 220 221 223 224 224 225 227 230 232 233 232 232 232 233 237 240 240 238 236 235 235 238 241 244 246 246 245 245 247 250 252 254 257 264 272 279 283 284
338 323 291 280 258 228 218 212 202 198 202 203 204 205 203 200 197 195 194 195 200 205 206 206 204 195 180 171 171 178 187 193 192 190 195 206 209 209 214 218 220 223 222 219 218 220 220 215 214 216 219 222 224 225 227 230 232 233 233 232 231 232 235 239 238 235 234 233 234 237 240 242 245 246 246 247 249 252 252 254 257 262 270 278 282 284
5 358 334 313 287 210 203 206 199 196 199 197 197 201 202 201 198 194 190 189 198 203 203 206 201 190 181 178 177 181 188 189 189 191 195 201 203 204 210 214 217 221 220 215 214 217 217 214 213 215 218 222 224 225 226 230 233 234 234 233 232 231 233 235 235 234 233 232 233 236 239 242 244 246 248 249 251 252 253 254 257 263 270 276 281 283
15 8 5 4 330 193 186 192 191 193 197 195 194 197 200 200 197 195 193 191 196 200 203 206 198 186 185 191 185 181 183 184 186 190 196 201 201 201 207 211 214 218 215 208 208 214 215 214 215 216 217 220 223 224 225 228 232 235 234 233 231 230 230 232 231 232 232 232 234 237 239 242 244 247 250 251 252 252 253 252 255 263 270 275 279 282
26 16 24 40 39 153 181 184 187 191 195 194 193 194 195 196 196 195 198 199 199 200 203 204 195 186 190 200 193 183 181 181 184 191 197 200 199 199 206 212 215 216 211 205 205 209 211 214 216 216 216 220 223 225 226 227 231 233 233 232 231 230 229 229 229 231 232 232 234 238 240 242 245 248 250 252 253 252 252 251 252 260 268 272 276 280
40 36 43 50 47 79 156 171 180 187 190 190 192 192 193 196 197 195 198 201 200 201 202 200 194 189 193 198 193 184 179 178 184 191 195 198 198 199 206 212 216 214 206 200 201 204 208 213 215 213 213 217 222 224 224 226 228 229 229 229 229 228 227 226 228 230 232 233 235 238 241 243 246 248 250 253 253 252 251 249 250 258 265 270 275 280
43 48 50 49 53 87 125 153 170 180 186 187 188 190 193 198 198 196 199 197 192 198 202 198 193 191 194 195 188 182 178 178 183 189 193 197 199 199 204 210 213 210 201 198 201 203 205 210 211 208 209 214 217 219 221 223 225 226 226 227 227 226 225 224 226 229 231 233 236 239 242 244 246 248 251 254 254 250 248 247 250 256 263 269 274 278
51 50 56 66 80 110 137 156 167 176 183 186 188 191 194 198 199 200 200 190 188 197 199 196 195 193 193 192 186 181 179 178 183 189 194 199 199 198 202 208 209 206 202 203 207 203 200 205 208 205 207 212 214 215 217 219 221 223 223 225 225 224 223 223 225 228 231 234 236 239 243 244 246 250 252 255 253 248 245 246 250 255 261 268 273 275
56 42 54 75 84 121 153 162 167 175 181 185 190 193 196 202 206 206 200 187 192 198 195 197 197 190 190 192 188 182 179 179 184 190 195 199 199 197 203 210 210 207 205 206 209 204 197 200 205 205 206 210 212 214 215 217 220 221 221 222 222 220 220 221 223 226 230 233 236 239 242 243 246 250 252 253 251 246 244 247 251 256 261 266 270 271
45 30 42 68 69 112 152 161 170 178 182 185 189 195 201 205 207 206 197 189 196 196 195 201 195 183 187 195 189 181 178 180 187 191 193 196 199 199 203 209 211 209 207 207 208 205 200 201 206 208 208 210 212 214 216 218 220 220 220 221 220 218 218 218 220 223 228 232 235 238 240 242 245 248 250 251 249 245 245 248 253 257 261 264 266 267
24 15 19 67 56 66 163 171 180 183 189 195 194 197 201 202 201 198 191 189 192 190 194 201 195 189 194 195 188 183 181 182 189 197 198 197 198 199 200 204 209 210 209 209 209 207 205 206 209 211 210 211 213 215 217 218 218 217 217 218 218 216 215 215 218 222 227 231 234 236 238 241 244 247 248 249 247 245 245 247 253 258 261 261 262 262
17 15 8 76 46 17 356 4 154 171 185 199 201 199 199 199 199 196 190 186 190 198 203 200 197 202 205 199 193 188 186 189 195 201 204 204 202 202 201 202 207 210 212 214 214 211 208 207 208 209 209 210 212 214 215 216 216 216 216 217 216 213 212 214 217 222 226 229 232 235 237 240 244 247 247 246 246 245 245 247 252 258 259 258 258 258
18 27 88 166 17 18 27 9 33 137 174 196 203 202 200 200 203 205 199 193 202 222 219 208 203 207 208 207 206 197 189 193 200 204 208 209 205 203 205 206 208 212 215 217 216 211 204 203 206 207 208 210 211 212 214 216 217 217 217 217 215 213 212 215 218 222 225 229 231 234 237 240 244 247 247 245 245 245 245 247 252 255 256 255 255 255
27 41 85 185 266 342 342 298 6 120 157 189 200 202 201 202 207 212 208 203 214 228 226 217 208 203 201 206 211 207 199 198 205 211 213 210 207 205 204 203 205 209 213 215 214 209 203 204 209 210 209 211 211 211 213 214 214 214 214 214 214 213 214 216 219 223 226 229 231 233 236 240 244 246 246 246 246 246 245 247 251 254 254 254 254 255
31 45 68 165 236 263 255 279 27 133 158 183 194 197 200 203 208 211 211 213 222 228 228 220 204 198 198 198 202 207 207 206 209 213 211 208 209 210 206 203 204 207 209 211 211 209 208 211 213 211 209 210 210 210 212 212 212 212 212 212 213 213 215 218 220 223 226 229 231 233 236 240 243 245 246 247 247 246 245 246 249 252 253 254 256 258
16 29 43 70 179 252 238 242 209 141 166 186 194 196 199 202 204 206 210 220 226 227 229 220 200 192 193 191 194 201 206 208 208 207 206 207 209 209 205 205 207 209 209 211 212 211 211 212 211 208 208 209 209 210 212 212 214 214 212 212 213 214 216 219 222 224 227 229 231 233 236 239 241 244 246 247 248 247 245 245 247 251 253 255 258 261
1 9 17 32 47 44 196 211 204 170 172 186 195 200 203 203 202 203 210 223 227 228 231 222 204 176 157 176 191 198 201 204 203 200 203 208 209 209 206 203 204 205 205 207 208 206 205 205 205 204 205 206 207 210 212 213 214 214 212 212 213 216 219 222 224 225 227 228 230 233 236 238 241 244 247 248 249 247 244 245 247 251 255 257 259 261
352 357 6 20 24 22 42 155 186 188 186 191 192 195 204 208 208 210 217 226 231 233 241 239 220 178 133 171 191 191 192 196 200 201 201 198 201 207 210 207 202 203 203 203 203 202 202 202 204 205 204 204 206 209 212 213 214 213 212 212 213 217 221 224 224 225 226 226 229 232 235 239 242 245 247 250 252 251 248 249 253 258 262 263 263 262
344 352 8 18 7 2 19 146 178 192 203 208 199 196 205 213 215 219 222 228 236 243 252 256 246 236 119 172 190 198 197 194 193 196 196 192 193 199 203 202 199 199 199 198 200 203 203 203 206 207 207 208 210 210 212 213 213 212 211 211 213 218 222 223 223 224 225 226 228 232 236 240 244 247 250 254 258 259 255 253 257 265 269 268 266 265
338 348 2 8 4 1 10 150 178 200 213 218 213 209 211 213 217 221 221 226 236 245 252 256 253 254 248 167 180 199 204 199 194 190 188 189 193 195 195 195 196 197 198 199 201 203 203 204 207 209 210 213 213 212 212 212 212 212 209 209 213 219 222 221 221 223 223 224 228 234 239 244 247 249 252 254 259 264 261 255 255 265 273 271 267 265
337 342 345 344 353 359 1 43 164 203 218 225 226 223 221 219 220 223 222 225 234 242 246 248 246 247 247 217 162 182 190 193 195 196 193 188 189 192 193 194 196 199 201 203 206 206 206 207 208 209 211 214 214 213 212 212 211 210 207 208 214 218 220 219 220 222 223 226 232 238 243 247 249 249 251 255 261 268 269 262 260 267 273 271 267 265
349 347 340 333 340 351 358 13 146 196 216 227 234 234 231 229 230 230 229 230 236 242 246 246 243 241 240 241 218 150 171 181 189 196 199 195 188 187 191 194 197 201 203 204 206 207 208 210 210 210 212 214 215 214 213 212 211 209 207 210 214 216 217 218 220 223 226 230 235 241 246 249 250 251 255 260 264 267 269 266 265 267 268 266 265 265
351 350 349 345 339 346 359 8 221 207 219 232 236 235 233 233 235 236 233 234 239 242 244 247 249 248 246 244 242 188 131 156 177 189 197 199 197 194 194 194 196 202 207 207 206 206 208 210 212 213 215 217 217 216 214 212 210 208 208 210 212 215 216 218 221 225 228 232 237 242 246 249 251 253 258 262 265 267 268 266 265 264 263 263 264 266
334 334 354 4 351 338 341 345 328 276 255 246 230 228 231 233 237 240 239 238 239 238 239 244 248 251 253 250 245 236 199 154 162 177 190 198 199 198 198 198 199 204 207 207 206 206 206 206 209 213 216 218 217 215 214 211 208 208 209 209 211 213 215 219 223 227 230 234 239 243 247 249 251 256 260 262 265 266 265 264 263 262 262 263 265 267
316 316 341 4 355 335 331 334 335 323 286 253 224 219 224 228 232 237 240 240 240 238 238 242 246 250 254 254 250 242 230 209 189 186 193 199 197 198 199 197 196 201 205 205 207 208 206 204 206 210 214 216 215 213 211 209 207 208 208 208 209 212 215 220 225 228 232 236 240 244 247 248 250 255 259 262 264 264 263 263 263 262 264 265 266 268
312 313 325 345 344 335 328 327 336 335 309 279 257 219 213 218 224 228 234 238 236 234 235 240 245 249 252 253 251 244 234 226 219 214 214 212 206 206 207 204 200 200 199 201 208 212 210 206 206 209 212 213 213 211 208 206 207 207 206 206 207 211 215 220 225 229 231 234 237 242 246 248 250 255 259 260 262 262 262 262 263 264 265 266 266 266
302 310 314 322 332 335 323 314 334 344 328 303 294 228 208 213 219 222 228 233 232 228 227 232 240 246 248 249 249 245 236 230 227 228 229 225 217 214 216 217 215 208 204 212 224 221 212 207 206 209 211 212 212 211 208 205 205 205 203 204 207 211 216 220 225 228 230 232 236 241 245 249 253 256 257 258 259 260 261 262 263 264 264 264 264 265
285 294 299 307 321 332 321 302 324 349 341 310 299 261 221 217 215 219 227 234 235 229 225 226 237 244 244 243 243 242 237 233 231 232 234 232 229 227 226 227 230 225 221 235 252 241 220 211 206 206 209 211 211 210 206 204 203 201 200 204 208 212 217 221 225 229 232 235 239 242 246 251 254 254 255 256 258 259 260 260 260 260 260 262 263 266
271 277 283 293 309 324 323 306 305 333 340 319 291 271 231 219 213 213 224 235 237 233 231 234 239 242 242 242 242 240 237 236 236 235 236 236 235 235 233 231 235 237 233 239 252 251 232 219 212 209 208 208 209 208 205 203 200 198 200 205 210 213 217 221 226 231 235 238 241 243 246 249 250 251 253 255 256 257 257 257 258 258 260 263 265 268
265 269 274 280 291 307 315 304 289 305 326 321 285 244 214 219 219 216 221 230 229 225 229 234 237 242 246 247 247 243 239 238 236 234 235 237 238 239 238 235 236 239 237 238 242 242 234 223 218 215 210 206 206 206 203 200 197 197 200 205 209 213 217 222 228 234 238 241 242 243 243 244 245 248 251 252 253 254 254 255 257 259 262 266 269 272
260 263 266 268 272 285 301 300 284 287 308 318 302 250 201 204 218 218 222 226 221 219 224 229 229 235 239 237 239 240 239 239 239 239 240 241 240 238 238 237 237 236 236 238 239 236 229 220 215 213 211 207 204 202 198 194 191 192 197 203 208 214 220 225 231 236 239 240 240 240 240 242 245 248 249 249 251 253 255 258 261 264 267 270 272 274
Height
5647 5647 5650 5653 5654 5652 5650 5648 5645 5647 5651 5655 5659 5661 5663 5667 5671 5677 5684 5692 5699 5701 5704 5710 5715 5722 5729 5736 5743 5748 5753 5758 5763 5768 5771 5775 5780 5782 5785 5788 5791 5794 5798 5801 5803 5806 5810 5814 5818 5821 5824 5826 5828 5831 5833 5834 5834 5835 5835 5835 5836 5838 5839 5840 5839 5839 5839 5838 5838 5839 5839 5839 5839 5838 5837 5836 5836 5836 5835 5835 5835 5834 5834 5835 5835 5834
5639 5640 5645 5647 5645 5644 5643 5641 5640 5640 5642 5646 5649 5652 5656 5659 5664 5671 5676 5682 5690 5693 5698 5705 5709 5715 5722 5728 5735 5741 5745 5750 5757 5762 5765 5771 5777 5779 5782 5784 5788 5792 5794 5796 5798 5802 5805 5808 5811 5815 5819 5823 5825 5827 5829 5830 5831 5831 5832 5832 5833 5835 5836 5837 5836 5836 5835 5834 5835 5836 5836 5836 5836 5835 5835 5834 5834 5834 5833 5833 5832 5832 5832 5832 5833 5833
5633 5636 5640 5639 5637 5637 5636 5636 5635 5634 5636 5638 5641 5644 5648 5653 5659 5665 5670 5676 5681 5684 5691 5699 5702 5707 5715 5721 5727 5732 5737 5742 5751 5757 5760 5766 5772 5776 5778 5781 5784 5787 5789 5791 5794 5797 5801 5804 5806 5810 5814 5819 5822 5825 5826 5827 5828 5829 5829 5830 5831 5832 5833 5833 5833 5833 5832 5832 5833 5834 5834 5834 5833 5832 5832 5832 5832 5831 5831 5830 5830 5830 5829 5830 5830 5830
5628 5632 5632 5631 5631 5630 5630 5630 5629 5629 5630 5632 5635 5637 5640 5648 5654 5657 5665 5672 5675 5678 5685 5692 5695 5699 5706 5711 5717 5724 5731 5737 5744 5751 5756 5761 5767 5772 5775 5777 5780 5782 5784 5787 5791 5794 5798 5801 5803 5806 5810 5814 5819 5822 5822 5823 5825 5826 5826 5827 5828 5829 5830 5830 5830 5829 5829 5829 5830 5831 5831 5831 5830 5830 5830 5830 5829 5829 5829 5828 5828 5827 5827 5827 5827 5827
5625 5627 5625 5623 5624 5624 5624 5624 5623 5624 5625 5627 5630 5632 5636 5643 5647 5652 5661 5668 5670 5673 5679 5686 5688 5689 5695 5702 5709 5717 5724 5731 5737 5744 5750 5755 5762 5768 5771 5773 5775 5778 5780 5783 5787 5791 5794 5797 5800 5803 5806 5811 5815 5818 5820 5821 5822 5822 5822 5823 5824 5825 5826 5827 5826 5826 5826 5827 5828 5828 5828 5828 5827 5827 5827 5827 5827 5827 5826 5826 5825 5825 5825 5824 5824 5824
5621 5621 5618 5617 5617 5617 5618 5618 5619 5620 5621 5623 5625 5629 5633 5639 5643 5648 5657 5663 5664 5666 5673 5681 5680 5680 5688 5695 5702 5710 5716 5723 5731 5738 5743 5749 5756 5761 5764 5767 5770 5773 5775 5778 5782 5787 5791 5794 5797 5799 5803 5807 5812 5815 5817 5818 5818 5818 5819 5820 5820 5822 5823 5823 5823 5823 5823 5824 5825 5826 5826 5825 5825 5824 5824 5825 5825 5825 5824 5823 5823 5822 5822 5822 5822 5822
5615 5614 5611 5611 5611 5612 5612 5613 5615 5616 5616 5617 5621 5627 5631 5635 5640 5644 5651 5655 5656 5659 5668 5674 5673 5675 5683 5689 5695 5703 5708 5716 5725 5731 5737 5743 5749 5754 5757 5761 5764 5768 5770 5773 5777 5781 5785 5789 5792 5796 5800 5805 5809 5812 5814 5814 5814 5814 5815 5816 5817 5818 5819 5819 5820 5820 5820 5821 5822 5823 5823 5822 5822 5822 5822 5822 5823 5822 5821 5821 5820 5820 5820 5820 5819 5819
5609 5607 5606 5606 5606 5606 5607 5609 5612 5613 5612 5613 5618 5623 5627 5632 5636 5640 5647 5649 5651 5657 5662 5665 5667 5668 5673 5682 5691 5698 5703 5709 5718 5725 5731 5737 5744 5749 5753 5756 5759 5763 5765 5768 5771 5775 5780 5784 5788 5792 5797 5802 5805 5808 5810 5810 5810 5811 5811 5812 5813 5814 5815 5816 5816 5817 5817 5818 5819 5820 5820 5820 5820 5819 5820 5820 5820 5819 5819 5818 5818 5818 5818 5817 5817 5817
5602 5601 5601 5601 5601 5601 5603 5606 5609 5610 5608 5611 5616 5619 5623 5628 5632 5637 5642 5645 5651 5655 5653 5657 5662 5662 5665 5676 5686 5693 5698 5703 5710 5719 5726 5731 5738 5744 5748 5752 5755 5758 5761 5764 5767 5771 5775 5780 5785 5790 5795 5798 5801 5804 5806 5806 5806 5807 5808 5808 5809 5811 5811 5812 5813 5813 5814 5815 5816 5817 5817 5817 5817 5817 5817 5818 5818 5817 5816 5816 5816 5816 5816 5816 5815 5815
5597 5597 5597 5597 5598 5599 5601 5603 5605 5606 5606 5609 5613 5614 5618 5623 5627 5632 5635 5639 5646 5645 5644 5653 5659 5657 5660 5670 5679 5685 5691 5696 5703 5713 5721 5727 5734 5739 5743 5748 5751 5754 5757 5760 5764 5768 5773 5778 5783 5788 5791 5794 5797 5800 5801 5801 5803 5804 5804 5805 5806 5807 5808 5809 5810 5810 5811 5812 5813 5814 5814 5815 5815 5815 5815 5815 5815 5814 5814 5814 5814 5814 5814 5813 5813 5813
5593 5593 5593 5594 5596 5598 5598 5599 5601 5603 5604 5606 5608 5610 5614 5619 5624 5627 5629 5635 5637 5633 5637 5650 5655 5654 5655 5663 5672 5678 5685 5692 5699 5708 5715 5723 5729 5734 5738 5743 5746 5750 5753 5757 5761 5765 5770 5775 5779 5783 5786 5789 5793 5795 5796 5798 5800 5801 5802 5802 5803 5804 5805 5806 5806 5807 5809 5810 5810 5811 5812 5813 5813 5813 5813 5813 5813 5812 5812 5811 5812 5812 5812 5811 5811 5811
5589 5589 5590 5591 5593 5594 5595 5596 5598 5600 5601 5603 5605 5607 5610 5614 5620 5623 5625 5629 5628 5626 5634 5647 5653 5652 5650 5657 5668 5674 5681 5689 5696 5703 5711 5718 5724 5729 5734 5739 5742 5746 5750 5753 5757 5762 5766 5770 5774 5777 5781 5785 5789 5791 5793 5795 5797 5798 5799 5799 5800 5801 5801 5802 5803 5805 5806 5807 5808 5809 5810 5810 5810 5810 5810 5810 5810 5810 5810 5809 5809 5810 5810 5810 5809 5809
5586 5586 5587 5588 5589 5590 5590 5592 5595 5597 5599 5602 5604 5605 5608 5611 5615 5617 5620 5623 5623 5625 5635 5644 5650 5648 5647 5656 5668 5672 5678 5685 5692 5701 5708 5713 5719 5725 5730 5735 5738 5742 5746 5749 5753 5757 5762 5765 5769 5773 5777 5782 5785 5787 5789 5791 5793 5794 5795 5796 5797 5797 5798 5799 5800 5802 5803 5804 5805 5806 5807 5808 5808 5808 5808 5808 5808 5808 5808 5808 5808 5808 5808 5808 5807 5807
5583 5583 5584 5585 5585 5586 5587 5590 5593 5595 5598 5601 5603 5604 5606 5609 5611 5613 5616 5620 5622 5627 5635 5643 5644 5641 5644 5655 5665 5671 5676 5682 5689 5698 5705 5710 5715 5720 5727 5732 5736 5739 5741 5745 5749 5753 5757 5761 5766 5770 5774 5777 5781 5783 5784 5786 5789 5791 5792 5793 5794 5794 5795 5796 5798 5799 5801 5802 5803 5804 5805 5805 5805 5805 5806 5806 5806 5806 5806 5806 5806 5806 5806 5805 5805 5805
5580 5580 5581 5582 5582 5583 5584 5587 5591 5594 5596 5598 5601 5601 5603 5605 5608 5611 5615 5618 5621 5627 5635 5640 5638 5636 5641 5651 5661 5669 5676 5681 5687 5693 5699 5705 5711 5718 5724 5728 5732 5735 5738 5741 5745 5749 5753 5758 5763 5767 5770 5773 5776 5777 5779 5782 5785 5787 5789 5790 5790 5791 5792 5794 5795 5797 5798 5799 5800 5801 5802 5802 5803 5803 5803 5803 5804 5804 5804 5804 5804 5804 5804 5803 5803 5803
5578 5578 5579 5579 5579 5580 5582 5584 5588 5591 5592 5595 5598 5599 5601 5604 5606 5609 5614 5618 5622 5625 5630 5634 5633 5634 5641 5650 5660 5668 5673 5679 5685 5689 5694 5701 5707 5713 5717 5721 5726 5730 5733 5736 5740 5745 5750 5755 5759 5762 5766 5769 5771 5773 5775 5778 5781 5784 5786 5786 5787 5788 5790 5791 5793 5794 5795 5796 5798 5799 5799 5799 5800 5801 5801 5801 5802 5802 5802 5802 5802 5802 5802 5802 5802 5801
5576 5577 5577 5576 5576 5577 5579 5582 5584 5585 5588 5591 5594 5596 5600 5603 5605 5609 5614 5618 5621 5622 5626 5630 5630 5634 5641 5650 5659 5666 5670 5676 5681 5685 5691 5697 5703 5707 5710 5715 5721 5725 5729 5733 5737 5742 5747 5751 5755 5758 5762 5765 5767 5769 5772 5775 5778 5780 5782 5782 5783 5785 5787 5789 5790 5791 5793 5794 5795 5796 5796 5797 5798 5799 5799 5799 5799 5800 5800 5800 5800 5800 5800 5800 5800 5799
5575 5575 5575 5574 5575 5576 5578 5580 5582 5584 5586 5588 5591 5595 5598 5601 5604 5609 5612 5616 5618 5621 5626 5631 5631 5635 5642 5650 5658 5665 5670 5675 5679 5683 5689 5694 5698 5701 5705 5712 5718 5722 5725 5730 5735 5739 5743 5747 5750 5754 5758 5761 5763 5766 5769 5772 5774 5776 5777 5778 5780 5782 5785 5786 5787 5789 5790 5791 5792 5793 5794 5795 5796 5796 5796 5797 5797 5798 5798 5798 5798 5798 5798 5798 5798 5797
5573 5573 5572 5572 5573 5574 5576 5578 5581 5584 5587 5589 5592 5595 5597 5599 5603 5607 5610 5613 5616 5621 5626 5630 5632 5636 5643 5650 5657 5664 5670 5675 5679 5683 5686 5690 5693 5697 5702 5709 5714 5718 5721 5726 5731 5735 5738 5742 5745 5749 5753 5757 5760 5763 5765 5767 5769 5771 5772 5774 5777 5780 5782 5783 5784 5786 5787 5789 5790 5791 5791 5792 5793 5794 5794 5795 5795 5796 5796 5796 5796 5795 5796 5796 5796 5795
5572 5571 5570 5570 5571 5572 5574 5577 5580 5584 5587 5590 5593 5594 5595 5597 5600 5604 5608 5612 5616 5620 5624 5627 5631 5637 5643 5650 5657 5663 5669 5675 5678 5682 5685 5687 5690 5694 5699 5704 5709 5713 5717 5722 5727 5731 5734 5737 5741 5746 5750 5753 5756 5759 5761 5762 5764 5767 5769 5771 5774 5777 5778 5779 5781 5783 5785 5786 5787 5788 5789 5790 5791 5792 5792 5792 5793 5793 5793 5794 5793 5793 5793 5794 5793 5793
5573 5571 5570 5570 5570 5571 5572 5576 5580 5584 5587 5589 5591 5592 5595 5598 5600 5603 5608 5612 5615 5619 5622 5624 5628 5634 5642 5650 5657 5662 5666 5668 5670 5674 5679 5684 5688 5691 5695 5700 5704 5708 5713 5719 5723 5726 5729 5733 5738 5742 5746 5749 5751 5754 5756 5758 5761 5763 5766 5769 5772 5774 5775 5777 5778 5780 5782 5783 5784 5785 5786 5788 5789 5789 5789 5790 5790 5790 5791 5791 5791 5791 5791 5791 5791 5790
5573 5571 5570 5569 5569 5570 5571 5574 5578 5581 5584 5588 5591 5593 5597 5600 5602 5604 5608 5612 5615 5618 5621 5623 5626 5633 5642 5647 5651 5655 5658 5660 5662 5665 5671 5679 5685 5688 5692 5696 5700 5704 5709 5715 5720 5723 5726 5730 5734 5737 5741 5744 5746 5749 5751 5754 5757 5760 5763 5766 5768 5770 5772 5774 5775 5778 5779 5781 5782 5783 5784 5785 5786 5787 5787 5787 5788 5788 5788 5789 5789 5789 5789 5788 5788 5788
5572 5571 5570 5569 5568 5568 5569 5572 5575 5579 5582 5585 5589 5592 5596 5599 5601 5605 5609 5612 5614 5616 5619 5621 5624 5631 5639 5642 5643 5647 5653 5656 5660 5663 5668 5674 5680 5685 5689 5693 5697 5701 5706 5712 5716 5719 5723 5727 5730 5733 5736 5739 5742 5745 5747 5750 5753 5756 5760 5762 5764 5767 5769 5771 5773 5774 5776 5778 5779 5780 5782 5783 5784 5784 5784 5785 5785 5785 5786 5786 5786 5786 5786 5786 5785 5785
5572 5572 5570 5569 5568 5568 5569 5571 5574 5577 5580 5583 5586 5589 5593 5597 5602 5606 5609 5610 5612 5614 5617 5620 5623 5629 5635 5638 5640 5646 5651 5655 5659 5662 5666 5670 5675 5680 5685 5689 5693 5697 5703 5709 5713 5716 5719 5722 5725 5728 5731 5735 5738 5740 5743 5746 5750 5753 5756 5758 5761 5764 5766 5768 5770 5771 5773 5775 5776 5777 5779 5780 5781 5781 5782 5783 5783 5783 5783 5784 5783 5783 5783 5783 5783 5783
5576 5574 5572 5570 5569 5568 5569 5571 5574 5577 5580 5584 5587 5590 5594 5598 5602 5605 5607 5608 5610 5613 5615 5618 5622 5627 5632 5635 5639 5643 5648 5653 5657 5660 5663 5668 5672 5677 5681 5686 5690 5694 5700 5705 5709 5711 5714 5717 5720 5723 5728 5731 5734 5736 5739 5743 5746 5749 5752 5755 5758 5760 5763 5765 5767 5769 5771 5772 5773 5775 5776 5778 5778 5779 5780 5780 5780 5780 5781 5781 5781 5780 5780 5781 5781 5780
5579 5577 5575 5574 5572 5570 5570 5572 5575 5579 5583 5586 5589 5591 5594 5598 5600 5603 5605 5607 5609 5612 5614 5617 5621 5625 5628 5629 5634 5639 5644 5649 5653 5657 5662 5666 5670 5673 5678 5683 5687 5692 5696 5701 5704 5707 5711 5714 5716 5720 5725 5728 5730 5733 5736 5739 5742 5745 5748 5752 5755 5757 5759 5762 5764 5766 5768 5769 5771 5772 5773 5775 5776 5776 5777 5778 5778 5778 5778 5778 5778 5778 5778 5778 5778 5778
5580 5579 5578 5578 5577 5575 5575 5576 5578 5581 5584 5587 5590 5593 5595 5597 5600 5602 5604 5606 5609 5612 5615 5617 5620 5624 5627 5629 5632 5636 5640 5645 5650 5655 5659 5663 5666 5670 5674 5679 5684 5689 5693 5697 5701 5704 5708 5712 5714 5718 5721 5723 5726 5729 5732 5735 5739 5742 5745 5749 5751 5754 5756 5759 5761 5763 5765 5766 5768 5769 5770 5772 5773 5773 5774 5775 5775 5775 5775 5775 5776 5776 5776 5776 5776 5776
5582 5582 5581 5581 5581 5580 5580 5580 5582 5584 5587 5590 5592 5594 5596 5598 5600 5601 5603 5607 5609 5610 5612 5616 5619 5623 5627 5630 5633 5634 5638 5642 5647 5652 5656 5660 5662 5666 5670 5675 5680 5685 5689 5693 5698 5702 5707 5711 5713 5715 5717 5720 5722 5725 5728 5731 5735 5738 5742 5745 5748 5751 5754 5756 5758 5760 5762 5763 5765 5766 5767 5769 5770 5771 5771 5772 5773 5773 5772 5773 5773 5773 5773 5773 5773 5773
5586 5585 5584 5584 5585 5585 5585 5585 5586 5588 5590 5593 5595 5596 5598 5599 5600 5601 5603 5606 5608 5608 5611 5615 5618 5622 5627 5630 5632 5634 5637 5641 5644 5649 5653 5657 5660 5662 5666 5671 5676 5681 5685 5690 5695 5700 5705 5708 5710 5712 5714 5717 5719 5722 5725 5728 5731 5735 5739 5742 5744 5747 5750 5753 5755 5757 5759 5760 5761 5763 5764 5765 5766 5768 5768 5769 5770 5770 5770 5770 5770 5770 5771 5771 5771 5770
5589 5588 5586 5586 5587 5588 5589 5589 5590 5591 5592 5594 5596 5597 5598 5598 5599 5601 5603 5606 5607 5609 5612 5615 5618 5623 5627 5629 5630 5634 5637 5640 5643 5646 5650 5654 5657 5660 5663 5668 5674 5678 5683 5687 5692 5697 5702 5706 5708 5710 5711 5714 5716 5719 5722 5725 5729 5733 5736 5739 5741 5745 5748 5750 5752 5754 5755 5757 5758 5759 5761 5762 5764 5765 5766 5766 5766 5767 5767 5767 5768 5768 5768 5768 5768 5768
5591 5590 5588 5588 5588 5589 5590 5590 5590 5592 5593 5594 5595 5596 5598 5599 5599 5601 5603 5605 5607 5610 5613 5615 5619 5624 5626 5627 5630 5634 5637 5640 5643 5646 5649 5652 5655 5657 5661 5666 5671 5676 5681 5685 5690 5694 5698 5702 5704 5706 5708 5711 5713 5716 5720 5723 5727 5730 5733 5736 5739 5742 5745 5747 5749 5751 5752 5753 5755 5756 5758 5759 5761 5762 5763 5763 5763 5764 5764 5765 5765 5765 5765 5766 5765 5765
5592 5590 5589 5589 5589 5589 5590 5590 5590 5591 5593 5594 5595 5596 5598 5600 5601 5603 5605 5606 5608 5611 5613 5615 5618 5621 5623 5625 5630 5633 5636 5639 5643 5646 5649 5651 5653 5656 5659 5664 5670 5674 5678 5682 5686 5690 5694 5698 5700 5702 5705 5708 5711 5714 5717 5721 5724 5727 5730 5733 5736 5739 5741 5743 5745 5747 5749 5750 5751 5753 5755 5757 5758 5759 5759 5760 5760 5761 5762 5762 5762 5762 5763 5763 5763 5763
5593 5591 5590 5590 5590 5590 5591 5591 5591 5592 5593 5594 5595 5596 5598 5600 5602 5604 5606 5608 5610 5612 5613 5616 5618 5619 5621 5624 5627 5630 5634 5637 5640 5643 5646 5649 5652 5655 5658 5662 5667 5672 5676 5680 5684 5687 5691 5694 5697 5700 5703 5706 5708 5711 5715 5718 5721 5724 5727 5730 5733 5735 5738 5740 5742 5744 5745 5746 5748 5750 5752 5754 5754 5755 5756 5757 5757 5758 5759 5760 5760 5760 5760 5760 5760 5760
5594 5592 5591 5592 5592 5592 5592 5592 5592 5593 5593 5594 5596 5597 5599 5601 5602 5604 5606 5609 5611 5612 5613 5615 5616 5618 5620 5622 5625 5627 5631 5634 5636 5639 5642 5645 5648 5652 5655 5658 5663 5668 5672 5676 5680 5684 5688 5692 5695 5698 5701 5704 5706 5709 5712 5715 5718 5720 5723 5726 5729 5732 5734 5736 5738 5740 5742 5743 5745 5748 5749 5750 5751 5752 5752 5753 5754 5755 5756 5757 5757 5757 5757 5758 5758 5758
5595 5594 5593 5594 5594 5593 5593 5593 5593 5593 5593 5594 5595 5598 5600 5602 5603 5605 5608 5610 5611 5612 5613 5614 5615 5616 5618 5620 5623 5626 5629 5632 5633 5636 5638 5641 5644 5648 5652 5655 5659 5663 5667 5671 5675 5680 5684 5688 5692 5695 5698 5700 5703 5706 5708 5711 5713 5716 5719 5722 5725 5728 5730 5732 5734 5736 5738 5740 5742 5745 5746 5747 5748 5748 5749 5750 5751 5752 5753 5754 5754 5754 5755 5755 5756 5756
5597 5595 5594 5595 5595 5594 5594 5594 5595 5595 5595 5595 5596 5599 5602 5603 5605 5608 5611 5612 5612 5612 5613 5615 5615 5615 5616 5619 5622 5625 5627 5629 5631 5633 5635 5637 5641 5647 5651 5653 5656 5660 5665 5669 5674 5678 5682 5686 5690 5693 5695 5698 5700 5703 5705 5707 5710 5713 5716 5719 5722 5724 5726 5728 5731 5733 5735 5737 5739 5741 5743 5744 5744 5745 5745 5746 5748 5749 5750 5751 5751 5752 5752 5753 5753 5753
5598 5596 5595 5595 5595 5595 5595 5596 5596 5597 5597 5597 5599 5601 5603 5605 5608 5610 5611 5611 5612 5612 5613 5614 5615 5616 5617 5619 5621 5622 5623 5626 5629 5632 5634 5635 5639 5644 5648 5649 5652 5657 5663 5668 5673 5677 5680 5684 5687 5689 5692 5694 5697 5699 5702 5704 5706 5709 5712 5715 5718 5721 5723 5725 5728 5730 5732 5734 5736 5738 5739 5740 5741 5741 5742 5743 5744 5745 5747 5747 5748 5749 5750 5750 5750 5750
5599 5598 5597 5596 5595 5595 5596 5597 5597 5597 5598 5599 5600 5601 5602 5604 5606 5608 5610 5610 5611 5611 5612 5614 5616 5617 5618 5619 5621 5620 5621 5624 5628 5631 5633 5634 5636 5641 5645 5647 5651 5656 5661 5665 5669 5673 5677 5680 5683 5686 5688 5691 5693 5695 5698 5700 5703 5706 5709 5712 5715 5718 5720 5722 5725 5728 5729 5731 5733 5734 5735 5736 5737 5738 5739 5740 5741 5742 5744 5744 5745 5746 5747 5747 5747 5746
5601 5600 5599 5598 5596 5595 5596 5597 5597 5598 5599 5599 5600 5601 5601 5602 5604 5605 5608 5609 5609 5610 5613 5614 5615 5617 5618 5619 5620 5621 5622 5623 5626 5629 5632 5634 5636 5640 5645 5648 5652 5656 5659 5663 5668 5672 5675 5677 5680 5683 5685 5687 5689 5691 5694 5696 5699 5701 5705 5708 5711 5714 5716 5719 5722 5725 5726 5728 5729 5730 5731 5733 5734 5735 5737 5738 5739 5739 5741 5742 5742 5743 5744 5744 5743 5743
5602 5601 5600 5599 5597 5597 5596 5597 5597 5598 5598 5599 5600 5601 5601 5602 5603 5604 5606 5607 5608 5609 5612 5614 5615 5617 5618 5618 5619 5621 5622 5622 5624 5627 5630 5632 5635 5639 5643 5648 5652 5656 5659 5662 5666 5669 5672 5675 5677 5680 5682 5684 5686 5688 5690 5692 5695 5698 5701 5704 5708 5710 5713 5717 5719 5721 5723 5724 5725 5726 5728 5729 5731 5733 5734 5734 5735 5735 5736 5738 5739 5740 5740 5740 5740 5739
5602 5601 5600 5599 5599 5598 5597 5597 5597 5598 5598 5598 5599 5600 5601 5602 5603 5603 5605 5606 5607 5608 5610 5612 5614 5616 5618 5619 5619 5619 5619 5621 5623 5626 5628 5631 5634 5638 5643 5647 5651 5654 5658 5661 5664 5667 5670 5672 5675 5677 5680 5681 5683 5685 5687 5689 5692 5695 5698 5701 5704 5707 5710 5713 5716 5717 5719 5720 5721 5723 5725 5726 5728 5729 5730 5730 5731 5731 5732 5734 5735 5735 5736 5736 5735 5735
5603 5602 5601 5600 5599 5598 5598 5598 5598 5598 5598 5599 5599 5599 5601 5602 5602 5602 5604 5606 5606 5607 5609 5610 5612 5615 5617 5619 5619 5618 5618 5619 5623 5626 5630 5632 5635 5639 5642 5645 5648 5651 5655 5659 5662 5665 5667 5670 5672 5674 5676 5678 5680 5682 5684 5686 5689 5692 5695 5698 5701 5704 5707 5709 5711 5713 5715 5716 5718 5720 5722 5722 5723 5725 5726 5727 5727 5728 5729 5730 5731 5731 5732 5731 5731 5730
5603 5602 5601 5600 5599 5599 5599 5599 5599 5599 5599 5599 5599 5599 5600 5601 5600 5601 5603 5605 5605 5606 5607 5608 5609 5612 5614 5617 5619 5619 5619 5620 5624 5628 5631 5635 5637 5640 5642 5644 5646 5648 5651 5655 5659 5662 5664 5666 5668 5670 5672 5674 5677 5679 5681 5684 5686 5689 5691 5695 5698 5700 5703 5705 5707 5709 5711 5714 5716 5718 5719 5719 5719 5721 5722 5723 5723 5724 5725 5726 5726 5727 5727 5727 5726 5726
5603 5602 5601 5601 5600 5599 5599 5599 5599 5599 5599 5599 5598 5598 5599 5599 5599 5601 5603 5604 5604 5605 5606 5607 5609 5611 5613 5615 5617 5619 5621 5622 5625 5628 5631 5634 5637 5640 5642 5643 5645 5647 5648 5650 5653 5657 5660 5662 5663 5665 5668 5670 5672 5675 5677 5680 5682 5685 5688 5691 5693 5696 5699 5701 5703 5705 5708 5711 5713 5715 5715 5715 5716 5717 5718 5719 5719 5720 5721 5722 5722 5723 5723 5723 5722 5722
5603 5602 5601 5601 5601 5600 5599 5599 5599 5599 5599 5599 5599 5599 5599 5599 5599 5601 5602 5603 5604 5605 5606 5607 5609 5610 5612 5614 5616 5618 5621 5623 5626 5628 5630 5633 5636 5638 5639 5640 5642 5643 5644 5646 5648 5650 5653 5656 5658 5659 5661 5664 5666 5669 5672 5675 5678 5680 5683 5686 5689 5692 5695 5697 5699 5702 5705 5708 5710 5711 5711 5711 5712 5713 5714 5715 5715 5716 5717 5718 5718 5719 5719 5719 5718 5718
5603 5602 5601 5601 5601 5600 5599 5599 5599 5598 5598 5598 5598 5598 5599 5599 5599 5600 5601 5601 5603 5605 5606 5607 5608 5610 5611 5613 5614 5617 5619 5622 5625 5627 5629 5631 5634 5636 5638 5638 5638 5638 5639 5641 5644 5646 5647 5649 5652 5654 5656 5659 5661 5664 5667 5670 5672 5675 5677 5680 5684 5687 5690 5693 5695 5699 5702 5704 5706 5707 5707 5707 5708 5709 5710 5711 5712 5712 5713 5714 5714 5715 5715 5714 5714 5713
5603 5602 5601 5601 5600 5600 5599 5599 5598 5598 5597 5597 5597 5597 5598 5599 5599 5599 5598 5598 5600 5603 5604 5606 5607 5609 5610 5611 5612 5614 5617 5620 5622 5625 5627 5630 5631 5633 5634 5636 5637 5638 5638 5639 5642 5644 5644 5644 5646 5649 5651 5654 5656 5658 5660 5662 5663 5666 5670 5675 5678 5682 5686 5689 5692 5696 5699 5701 5702 5704 5704 5704 5705 5706 5706 5707 5708 5709 5710 5710 5711 5711 5711 5710 5710 5709
5602 5601 5601 5601 5600 5599 5598 5597 5597 5597 5596 5596 5596 5596 5597 5598 5598 5598 5597 5597 5599 5602 5604 5605 5607 5607 5608 5608 5610 5612 5615 5617 5620 5622 5624 5627 5628 5629 5631 5633 5635 5638 5639 5638 5638 5639 5641 5642 5642 5643 5646 5649 5651 5653 5656 5658 5658 5660 5665 5671 5675 5679 5683 5687 5690 5693 5695 5697 5699 5700 5701 5702 5702 5703 5704 5704 5705 5706 5707 5707 5707 5707 5707 5706 5706 5705
5600 5600 5600 5600 5599 5598 5597 5596 5596 5596 5595 5595 5595 5595 5596 5597 5597 5597 5598 5598 5599 5601 5603 5605 5606 5606 5606 5607 5608 5610 5613 5615 5617 5619 5621 5623 5625 5627 5629 5631 5633 5635 5636 5637 5636 5636 5637 5640 5641 5643 5646 5650 5652 5654 5657 5658 5658 5659 5664 5669 5673 5677 5681 5684 5686 5689 5691 5693 5695 5696 5698 5698 5699 5700 5701 5702 5702 5703 5703 5704 5704 5703 5703 5702 5702 5701
5598 5598 5598 5599 5598 5597 5596 5595 5595 5595 5594 5594 5594 5594 5595 5596 5597 5597 5598 5598 5599 5600 5602 5604 5604 5604 5604 5605 5606 5608 5610 5612 5614 5616 5618 5619 5622 5624 5626 5629 5631 5632 5633 5634 5633 5632 5633 5636 5639 5642 5645 5647 5649 5651 5655 5656 5655 5658 5663 5668 5671 5674 5678 5680 5683 5685 5688 5690 5691 5692 5694 5695 5696 5697 5698 5698 5699 5699 5700 5700 5700 5700 5699 5698 5697 5697
5596 5596 5596 5597 5598 5597 5595 5595 5594 5594 5594 5594 5594 5594 5594 5595 5596 5597 5597 5598 5599 5600 5602 5603 5603 5603 5603 5603 5604 5605 5607 5609 5611 5613 5615 5617 5619 5622 5624 5626 5629 5631 5631 5631 5629 5628 5630 5632 5635 5638 5641 5644 5646 5650 5654 5655 5655 5657 5662 5666 5668 5671 5674 5677 5680 5682 5684 5686 5688 5689 5691 5692 5693 5694 5694 5695 5695 5696 5696 5696 5696 5696 5695 5694 5693 5692